GW0410 Weather Reports


time (UTC)temp
C
wind
direction
speed
KPH
gust
KPH
rain 1hr
cm
rain 24hr
cm
rain mn
cm
humidity
%
barometer
mb
20260903014059 12 0.0 0.0 0.00 0.10 0.00 97 1020.9
20260903013124 12 0.0 0.0 0.00 0.10 0.00 97 1020.9
20260903012024 12 0.0 0.0 0.00 0.10 0.00 97 1020.9
20260903011029 12 0.0 0.0 0.00 0.10 0.00 97 1020.8
20260903010120 12 0.0 0.0 0.00 0.10 0.00 97 1020.8
20260903005020 13 0.0 0.0 0.00 0.10 0.00 97 1020.8
20260903004029 13 0.0 0.0 0.00 0.10 0.00 96 1020.5
20260903003027 13 0.0 0.0 0.00 0.10 0.00 96 1020.5
20260903002027 13 0.0 0.0 0.00 0.10 0.00 96 1020.5
20260903001048 13 0.0 0.0 0.00 0.10 0.00 96 1020.5
20260903000048 13 0.0 0.0 0.00 0.10 0.00 96 1020.5
20260902235109 13 0.0 0.0 0.00 0.10 0.00 95 1020.5
20260902234035 14 0.0 0.0 0.00 0.10 0.00 95 1020.9
20260902233041 14 0.0 0.0 0.00 0.10 0.00 95 1020.6
20260902232037 14 0.0 0.0 0.00 0.10 0.00 94 1020.6
20260902231031 15 0.0 0.0 0.00 0.10 0.00 94 1020.6
20260902230022 15 0.0 0.0 0.00 0.10 0.00 94 1020.6
20260902225022 15 0.0 0.0 0.00 0.10 0.00 93 1020.6
20260902224038 15 0.0 0.0 0.10 0.10 0.00 92 1020.6
20260902223028 15 0.0 0.0 0.10 0.10 0.00 91 1020.3
20260902222022 15 0.0 0.0 0.10 0.10 0.00 91 1020.3
20260902221028 16 0.0 0.0 0.10 0.10 0.00 89 1020.7
20260902220037 16 0.0 0.0 0.10 0.10 0.00 85 1020.7
20260902215103 16 0.0 0.0 0.10 0.10 0.10 82 1020.7
20260902214025 16 0.0 0.0 0.00 0.00 0.00 79 1020.4
20260902213021 16 0.0 0.0 0.00 0.00 0.00 79 1020.4
20260902212027 16 0.0 0.0 0.00 0.00 0.00 78 1020.4
20260902211037 16 0.0 0.0 0.00 0.00 0.00 78 1020.2
20260902210030 16 0.0 0.0 0.00 0.00 0.00 78 1020.2
20260902205025 16 0.0 0.0 0.00 0.00 0.00 77 1020.3
20260902204019 16 0.0 0.0 0.00 0.00 0.00 76 1020.2
20260902203027 16 0.0 0.0 0.00 0.00 0.00 75 1020.2
20260902202033 16 0.0 0.0 0.00 0.00 0.00 74 1020.2
20260902201039 16 0.0 0.0 0.00 0.00 0.00 73 1019.8
20260902200034 16 0.0 0.0 0.00 0.00 0.00 73 1019.8
20260902195022 16 0.0 0.0 0.00 0.00 0.00 73 1019.8
20260902194036 17 0.0 0.0 0.00 0.00 0.00 72 1019.7
20260902193049 17 0.0 0.0 0.00 0.00 0.00 71 1019.7
20260902192104 17 0.0 0.0 0.00 0.00 0.00 69 1019.7
20260902191025 17 0.0 0.0 0.00 0.00 0.00 69 1019.8
20260902190024 18 0.0 0.0 0.00 0.00 0.00 67 1020.1
20260902185023 18 0.0 0.0 0.00 0.00 0.00 67 1020.1
20260902184019 18 0.0 0.0 0.00 0.00 0.00 65 1019.9
20260902183053 19 0.0 0.0 0.00 0.00 0.00 64 1019.2
20260902182021 19 0.0 0.0 0.00 0.00 0.00 63 1019.2
20260902181021 20 0.0 0.0 0.00 0.00 0.00 61 1019.1
20260902180039 20 0.0 0.0 0.00 0.00 0.00 60 1018.8
20260902175019 20 0.0 0.0 0.00 0.00 0.00 59 1018.8
20260902174039 21 0.0 0.0 0.00 0.00 0.00 59 1018.8
20260902173027 21 0.0 0.0 0.00 0.00 0.00 58 1018.8
20260902172038 21 0.0 0.0 0.00 0.00 0.00 57 1018.9
20260902171024 22 0.0 0.0 0.00 0.00 0.00 55 1018.9
20260902170040 22 0.0 0.0 0.00 0.00 0.00 54 1018.9
20260902165020 23 0.0 0.0 0.00 0.00 0.00 54 1018.9
20260902164020 23 0.0 0.0 0.00 0.00 0.00 53 1018.9
20260902163025 23 0.0 0.0 0.00 0.00 0.00 53 1018.9
20260902162020 24 0.0 0.0 0.00 0.00 0.00 53 1019.0
20260902161022 24 0.0 0.0 0.00 0.00 0.00 53 1018.9
20260902160020 24 0.0 0.0 0.00 0.00 0.00 54 1019.3
20260902155023 23 0.0 0.0 0.00 0.00 0.00 53 1019.3
20260902154103 23 0.0 0.0 0.00 0.00 0.00 53 1019.3
20260902153034 24 253 0.0 0.0 0.00 0.00 0.00 51 1019.0
20260902152030 24 210 0.0 1.6 0.00 0.00 0.00 50 1019.0
20260902151023 25 271 0.0 1.6 0.00 0.00 0.00 49 1019.4
20260902150022 25 277 0.0 1.6 0.00 0.00 0.00 50 1019.7
20260902145041 25 300 0.0 1.6 0.00 0.00 0.00 47 1019.7
20260902144021 26 286 0.0 4.8 0.00 0.00 0.00 46 1019.4
20260902143044 26 266 1.6 4.8 0.00 0.00 0.00 45 1019.8
20260902142021 26 259 1.6 4.8 0.00 0.00 0.00 45 1019.8
20260902141029 26 274 1.6 6.4 0.00 0.00 0.00 46 1019.8
20260902140021 26 265 1.6 6.4 0.00 0.00 0.00 46 1020.1
20260902135020 26 270 3.2 6.4 0.00 0.00 0.00 45 1020.1
20260902134042 27 278 3.2 8.0 0.00 0.00 0.00 45 1020.2
20260902133019 27 325 0.0 1.6 0.00 0.00 0.00 46 1020.2
20260902132024 26 257 1.6 4.8 0.00 0.00 0.00 47 1020.1
20260902131023 26 123 0.0 4.8 0.00 0.00 0.00 48 1020.1
20260902130040 25 273 0.0 1.6 0.00 0.00 0.00 51 1020.4
20260902125042 25 0.0 0.0 0.00 0.00 0.00 54 1020.4
20260902124048 25 265 0.0 3.2 0.00 0.00 0.00 49 1020.4
20260902123106 26 275 0.0 4.8 0.00 0.00 0.00 48 1020.8
20260902122047 25 268 1.6 6.4 0.00 0.00 0.00 48 1020.7
20260902121033 23 246 0.0 0.0 0.00 0.00 0.00 52 1021.0
20260902120022 23 267 1.6 3.2 0.00 0.00 0.00 51 1020.7
20260902115019 23 289 0.0 0.0 0.00 0.00 0.00 52 1020.7
20260902114059 25 287 1.6 6.4 0.00 0.00 0.00 49 1020.8
20260902113019 25 251 3.2 6.4 0.00 0.00 0.00 49 1021.1
20260902112029 25 273 3.2 8.0 0.00 0.00 0.00 49 1021.1
20260902111053 24 259 1.6 6.4 0.00 0.00 0.00 50 1021.1
20260902110020 24 268 0.0 4.8 0.00 0.00 0.00 51 1021.1
20260902105019 25 278 0.0 4.8 0.00 0.00 0.00 51 1021.1
20260902104019 25 246 1.6 6.4 0.00 0.00 0.00 51 1021.5
20260902103023 26 269 3.2 6.4 0.00 0.00 0.00 49 1021.9
20260902102027 26 333 0.0 0.0 0.00 0.00 0.00 51 1021.9
20260902101033 25 265 3.2 8.0 0.00 0.00 0.00 52 1021.9
20260902100527 25 250 1.6 6.4 0.00 0.00 0.00 52 1021.8
20260902095032 25 208 0.0 4.8 0.00 0.00 0.00 54 1021.8
20260902094026 25 18 0.0 3.2 0.00 0.00 0.00 54 1022.2
20260902093022 25 269 0.0 4.8 0.00 0.00 0.00 54 1022.2
20260902092027 25 239 0.0 6.4 0.00 0.00 0.00 55 1022.2
20260902091029 25 251 0.0 1.6 0.00 0.00 0.00 57 1022.2
20260902090027 23 233 0.0 0.0 0.00 0.00 0.00 59 1022.2
20260902085032 23 251 0.0 3.2 0.00 0.00 0.00 61 1022.2
20260902084025 22 0.0 0.0 0.00 0.00 0.00 64 1022.1
20260902083024 22 0.0 0.0 0.00 0.00 0.00 68 1022.5
20260902082020 22 0.0 0.0 0.00 0.00 0.00 67 1022.5
20260902081021 23 0.0 0.0 0.00 0.00 0.00 66 1022.2
20260902080019 23 0.0 0.0 0.00 0.00 0.00 64 1022.6
20260902075042 21 309 0.0 0.0 0.00 0.00 0.00 67 1022.5
20260902074028 20 221 0.0 0.0 0.00 0.00 0.00 73 1022.4
20260902073021 18 0.0 0.0 0.00 0.00 0.00 76 1022.4
20260902072021 18 0.0 0.0 0.00 0.00 0.00 76 1022.3
20260902071033 18 0.0 0.0 0.00 0.00 0.00 77 1021.7
20260902070030 18 0.0 0.0 0.00 0.00 0.00 77 1022.1
20260902065049 19 0.0 0.0 0.00 0.00 0.00 80 1022.1
20260902064022 18 0.0 0.0 0.00 0.00 0.00 88 1022.0
20260902063023 16 0.0 0.0 0.00 0.00 0.00 95 1022.0
20260902062022 15 0.0 0.0 0.00 0.00 0.00 97 1021.9
20260902061021 12 0.0 0.0 0.00 0.00 0.00 97 1021.5
20260902060036 12 0.0 0.0 0.00 0.00 0.00 97 1021.8
20260902055120 11 0.0 0.0 0.00 0.00 0.00 97 1021.7
20260902054029 11 0.0 0.0 0.00 0.00 0.00 97 1021.8
20260902053031 11 0.0 0.0 0.00 0.00 0.00 97 1021.5
20260902052033 11 0.0 0.0 0.00 0.00 0.00 97 1021.5
20260902051027 10 0.0 0.0 0.00 0.00 0.00 97 1021.4
20260902050110 10 0.0 0.0 0.00 0.00 0.00 97 1021.5
20260902045025 10 0.0 0.0 0.00 0.00 0.00 97 1021.5
20260902044052 10 0.0 0.0 0.00 0.00 0.00 97 1021.5
20260902043047 10 0.0 0.0 0.00 0.00 0.00 97 1021.5
20260902042019 10 0.0 0.0 0.00 0.00 0.00 97 1021.5
20260902041053 10 0.0 0.0 0.00 0.00 0.00 97 1021.6
20260902040021 10 0.0 0.0 0.00 0.00 0.00 97 1021.6
20260902035058 10 0.0 0.0 0.00 0.00 0.00 97 1021.6
20260902034032 10 0.0 0.0 0.00 0.00 0.00 97 1021.7
20260902033040 10 0.0 0.0 0.00 0.00 0.00 97 1021.8
20260902032104 10 0.0 0.0 0.00 0.00 0.00 97 1021.8
20260902031021 10 0.0 0.0 0.00 0.00 0.00 96 1021.4
20260902030028 10 0.0 0.0 0.00 0.00 0.00 96 1021.8
20260902025053 10 0.0 0.0 0.00 0.00 0.00 96 1021.8
20260902024030 10 0.0 0.0 0.00 0.00 0.00 96 1021.7
20260902023057 10 0.0 0.0 0.00 0.00 0.00 96 1021.7
20260902022047 10 0.0 0.0 0.00 0.00 0.00 96 1021.7
20260902021045 10 0.0 0.0 0.00 0.00 0.00 96 1021.6
20260902020040 10 0.0 0.0 0.00 0.00 0.00 96 1021.6
20260902015044 10 0.0 0.0 0.00 0.00 0.00 96 1021.6